User: anonymous   Login
Location: Unspecified
(0.0000°N, 0.0000°E)
Time: 02:06:15
(UTC+00:00)
Language:

STARLINK-5244 - Orbit

View from above orbital plane
View from above orbital plane
View from above satellite
View from above satellite

Ground track
Ground track

The orbit is defined by the following mean orbital elements,

1 54199U          26145.02921494 +.00000000 +00000-0 -23486-4 0 00008
2 54199  53.2149  11.3405 0001194 114.5473 245.5644 15.08842609    01
Epoch (UTC): 25 May 2026 00:42:04
Eccentricity: 0.0001194
inclination: 53.2149°
perigee height: 539 km
apogee height: 541 km
right ascension of ascending node: 11.3405°
argument of perigee: 114.5473°
revolutions per day: 15.08842609
mean anomaly at epoch: 245.5644°

The dashed part of the orbit path shows where the satellite is in the earth's shadow,  

DLR